,

(GMT )
Resolute CS

Weather History for CXRB - October, 2011

Change the Weather History Date:

Friday, October 14, 2011

  Actual Average Record
Temperature  
Mean Temperature 6 °F -  
Max Temperature 9 °F - - ()
Min Temperature 2 °F - - ()
Degree Days  
Heating Degree Days 60    
Moisture  
Dew Point 2 °F    
Average Humidity 82    
Maximum Humidity 87    
Minimum Humidity 64    
Precipitation  
Precipitation 0.00 in - - ()
Sea Level Pressure  
Sea Level Pressure 30.08 in    
Wind  
Wind Speed 14 mph ()    
Max Wind Speed 23 mph    
Max Gust Speed -    
T = Trace of Precipitation, MM = Missing Value Source: Averaged Metar Reports

Daily Weather History Graph

Daily Weather History Graph

Search for Another Location

Airport or City:

Trip Planner

Search our weather history database for the weather conditions in past years. The results will help you decide how hot, cold, wet, or windy it might be!

Date:

Astronomy

Oct. 14, 2011 Rise Set
Actual Time 7:57 AM MDT 4:12 PM MDT
Civil Twilight 6:34 AM MDT 5:35 PM MDT
Nautical Twilight 5:01 AM MDT 7:06 PM MDT
Astronomical Twilight 3:19 AM MDT 8:47 PM MDT
Moon No Moon Rise No Moon Set
Length of Visible Light 11h 01m
Length of Day
8h 14m
Waning Gibbous, 94% of the Moon is Illuminated
Oct 14
Waning Gibbous
Oct 19
Last Quarter
Oct 26
New
Nov 2
First Quarter
Nov 10
Full

Hourly Weather History & Observations

Time (MDT) Temp. Windchill Dew Point Humidity Pressure Visibility Wind Dir Wind Speed Gust Speed Precip Events Conditions
12:00 AM 9 °F - 4 °F 73% 30.07 in - NW 13.8 mph - -  
12:00 AM 9.0 °F -7.3 °F 4.5 °F 82% 30.07 in - NW 13.8 mph - N/A   Unknown
1:00 AM 6.8 °F -11.3 °F 2.8 °F 84% 30.08 in - NW 16.1 mph - N/A   Unknown
2:00 AM 6.1 °F -15.2 °F 2.7 °F 86% 30.08 in - NW 23.0 mph - N/A   Unknown
3:00 AM 5.9 °F -15.5 °F 2.7 °F 87% 30.08 in - NW 23.0 mph - N/A   Unknown
4:00 AM 5.7 °F -15.3 °F 2.5 °F 86% 30.09 in - NW 21.9 mph - N/A   Unknown
5:00 AM 3.9 °F -17.1 °F 0.1 °F 84% 30.10 in - NNW 20.7 mph - N/A   Unknown
6:00 AM 5 °F - 1 °F 78% 30.10 in - NNW 19.6 mph - -  
6:00 AM 4.8 °F -15.5 °F 1.4 °F 86% 30.10 in - NNW 19.6 mph - N/A   Unknown
7:00 AM 5.5 °F -13.5 °F 1.8 °F 84% 30.10 in - NNW 17.3 mph - N/A   Unknown
8:00 AM 6.6 °F -12.1 °F 3.2 °F 86% 30.10 in - NNW 17.3 mph - N/A   Unknown
9:00 AM 6.6 °F -7.1 °F 2.7 °F 84% 30.10 in - NNW 9.2 mph - N/A   Unknown
10:00 AM 7.5 °F -7.7 °F 3.2 °F 82% 30.10 in - NNW 11.5 mph - N/A   Unknown
11:00 AM 7.5 °F -6.0 °F 3.0 °F 82% 30.10 in - NNW 9.2 mph - N/A   Unknown
12:00 PM 5 °F - 1 °F 77% 30.10 in - NNW 11.5 mph - -  
12:00 PM 5.0 °F -10.8 °F 1.2 °F 84% 30.10 in - NNW 11.5 mph - N/A   Unknown
1:00 PM 5.2 °F -11.4 °F 1.0 °F 83% 30.10 in - NNW 12.7 mph - N/A   Unknown
2:00 PM 3.2 °F -13.1 °F -0.6 °F 84% 30.10 in - NNW 11.5 mph - N/A   Unknown
3:00 PM 5.4 °F -11.8 °F 1.6 °F 84% 30.09 in - North 13.8 mph - N/A   Unknown
4:00 PM 6.6 °F -12.1 °F 3.0 °F 85% 30.08 in - North 17.3 mph - N/A   Unknown
5:00 PM 4.1 °F -14.1 °F 0.1 °F 84% 30.08 in - NNW 15.0 mph - N/A   Unknown
6:00 PM 7 °F - 0 °F 64% 30.07 in - NNW 16.1 mph - -  
6:00 PM 7.0 °F -11.0 °F 0.5 °F 75% 30.07 in - NNW 16.1 mph - N/A   Unknown
7:00 PM 7.0 °F -12.6 °F 2.3 °F 81% 30.07 in - NNW 19.6 mph - N/A   Unknown
8:00 PM 8.6 °F -10.0 °F 3.9 °F 81% 30.05 in - NNW 18.4 mph - N/A   Unknown
9:00 PM 8.2 °F - 3.2 °F 80% 30.05 in - NE 1.2 mph - N/A   Unknown
10:00 PM 9.1 °F -3.0 °F 5.5 °F 85% 30.01 in - North 8.1 mph - N/A   Unknown
11:00 PM 9.9 °F -7.3 °F 5.7 °F 83% 30.00 in - North 16.1 mph - N/A   Unknown